This is the latest recevied weather packets stored in our database for station/object DO2HBA-6. If no packets are shown the sender has not sent any weather packets the latest 10 day(s).
| Time | Temp. | Humidity | Pressure | Rain* | Wind** | Luminosity | Snow |
|---|---|---|---|---|---|---|---|
| 1777621117 | 12.78° C | 30% | 1028.3 hPa | 0 mm | - | - | - |
| 1777620816 | 12.22° C | 30% | 1028.4 hPa | 0 mm | - | - | - |
| 1777620516 | 12.22° C | 28% | 1028.4 hPa | 0 mm | - | - | - |
| 1777620216 | 12.22° C | 28% | 1028.2 hPa | 0 mm | - | - | - |
| 1777619916 | 11.67° C | 27% | 1028.3 hPa | 0 mm | - | - | - |
| 1777619615 | 11.67° C | 26% | 1028.3 hPa | 0 mm | - | - | - |
| 1777619315 | 11.11° C | 26% | 1028.3 hPa | 0 mm | - | - | - |
| 1777619015 | 11.11° C | 24% | 1028.3 hPa | 0 mm | - | - | - |
| 1777618714 | 10.56° C | 22% | 1028.3 hPa | 0 mm | - | - | - |
| 1777618414 | 10.56° C | 20% | 1028.2 hPa | 0 mm | - | - | - |
| 1777618114 | 10° C | 19% | 1028.2 hPa | 0 mm | - | - | - |
| 1777617813 | 9.44° C | 16% | 1028.2 hPa | 0 mm | - | - | - |
| 1777617513 | 9.44° C | 14% | 1028.2 hPa | 0 mm | - | - | - |
| 1777617213 | 8.89° C | 12% | 1028.3 hPa | 0 mm | - | - | - |
| 1777616913 | 8.89° C | 10% | 1028.3 hPa | 0 mm | - | - | - |
| 1777616612 | 8.33° C | 10% | 1028.3 hPa | 0 mm | - | - | - |
| 1777616312 | 8.33° C | 10% | 1028.2 hPa | 0 mm | - | - | - |
| 1777616012 | 7.78° C | 10% | 1028.2 hPa | 0 mm | - | - | - |
| 1777615711 | 7.22° C | 10% | 1028.2 hPa | 0 mm | - | - | - |
| 1777615411 | 7.22° C | 10% | 1028.3 hPa | 0 mm | - | - | - |
| 1777615111 | 6.67° C | 10% | 1028.2 hPa | 0 mm | - | - | - |
| 1777614811 | 6.11° C | 10% | 1028.2 hPa | 0 mm | - | - | - |
| 1777614510 | 5.56° C | 10% | 1028.2 hPa | 0 mm | - | - | - |
| 1777614210 | 5° C | 10% | 1028.1 hPa | 0 mm | - | - | - |
| 1777613910 | 5° C | 10% | 1028.1 hPa | 0 mm | - | - | - |
* Rain latest hour (hover to see other rain measurements)
** Current wind speed in m/s (hover to see current wind gust speed)